STARLINK-4040

operational
NORAD ID: 53151 Int'l Des: 2022-083 Owner: SPXS Country: US Constellation: starlink
LEOCIRCULAR

About STARLINK-4040

Description loading...

Live Position

Loading 3D Globe...

Upcoming Passes

Altitude History

Altitude vs Time

uPlot chart will show altitude changes over time

Two-Line Element Set

1 53151U 22083V 25251.30930863 -.00000534 00000-0 -15491-4 0 9995
2 53151 53.2163 262.8600 0001281 86.8345 273.2794 15.08840752173822
Epoch: Sep 8, 2025 • Age: 20 hours

Current Status

Altitude 539.9 km
Velocity 7.60 km/s
Sub-Earth Point 21.16°N, 26.36°E
Launch Date Jul 17, 2022
Age 3.1 years
Type internet

Technical Details

Classification Payload
Mass 297.00 kg
Dry Mass 275.00 kg
Total Mass 297.00 kg
Length 0.20 m
Diameter 2.80 m
Span 9.00 m
Shape Box + pan
Manufacturer SPXS
Bus Type Starlink
Phase Status In Orbit
Owner/State SPXS/US

Large Constellations

Loading constellations...